Zurück zum Katalog

STARLINK-35267

AktivKommunikationSSO
NORAD 65592·PAYLOAD·🇺🇸 United States

Gestartet Sep 13, 2025 von Cape Canaveral Space Force Station

Loading…

Nächste Überflüge (nächste 24 Stunden)

TLE

AktuellSource: CelesTrak SupGP

Epoche: Sep 14, 2026, 14:03 UTC

1 65592C 25207A   26257.58590278  .02311900  00000+0  96457-1 0  2573
2 65592  97.2840 320.2541 0001629  98.1893 328.7116 15.22580952    10

Verfolge STARLINK-35267 in Echtzeit mit AllMySat

Download on the App Store